Flag for Canada Weather past 2 weeks in Edmonton, Alberta, Canada

Now
41 °F

Sunny.


Feels Like: 38 °F
Forecast: 29 / 51 °F
Wind: 5 mph from South

Location: Edmonton Municipal


UV Index: 0 (Low)

Visibility: 9 mi


Pressure: 29.87 "Hg

Humidity: 57%

Dew point: 27 °F

Location of EdmontonLocation

Historic Weather in Edmonton

°F

Edmonton temperature yesterday

Maximum temperature yesterday: 36 °F (at 6:00 PM)
Minimum temperature yesterday: 28 °F (at 12:00 AM)
Average temperature yesterday: 31 °F

Past Weeks' High & Low Weather Summary

 TemperatureHumidityPressure
High66 °F (Apr 8, 4:00 PM)74% (Apr 19, 7:00 AM)30.50 "Hg (Apr 19, 7:00 AM)
Low21 °F (Apr 12, 7:01 AM)23% (Apr 14, 6:00 PM)29.54 "Hg (Apr 8, 7:00 PM)
Average37 °F47%29.93 "Hg
* Reported Apr 4 11:00 AM — Apr 19 11:00 AM, Edmonton, Weather by CustomWeather, © 2014

Note: Actual official high and low records may vary slightly from our data, if they occured in-between our weather recording intervals... More about our weather records

Advertising

Historic Weather Conditions — Data for Previous 24 hours

 ConditionsComfort  
Time TempWeatherWind HumidityBarometerVisibility
11:00 AM
Apr 19
41 °FSunny.5 mph57%29.87 "Hg9 mi
10:00 AM39 °FSunny.5 mph56%29.89 "Hg8 mi
9:00 AM34 °FSunny.3 mph65%29.89 "Hg8 mi
8:00 AM30 °FSunny.3 mph69%29.89 "Hg6 mi
7:00 AM27 °FClear.No wind74%29.89 "Hg3 mi
6:51 AM28 °FClear.No wind69%29.80 "Hg2 mi
6:00 AM28 °FPassing clouds.No wind69%29.89 "Hg4 mi
5:00 AM28 °FClear.2 mph69%29.89 "Hg6 mi
4:00 AM30 °FClear.3 mph69%29.89 "Hg9 mi
3:00 AM32 °FPassing clouds.3 mph64%29.88 "Hg9 mi
2:00 AM34 °FOvercast.3 mph65%29.89 "Hg9 mi
1:00 AM34 °FOvercast.No wind60%29.90 "Hg9 mi
12:00 AM34 °FOvercast.No wind60%29.90 "Hg9 mi
11:00 PM
Apr 18
34 °FPassing clouds.2 mph60%29.90 "Hg9 mi
10:00 PM34 °FOvercast.3 mph60%29.90 "Hg9 mi
9:00 PM34 °FOvercast.7 mph60%29.89 "Hg9 mi
8:00 PM34 °FOvercast.5 mph65%29.87 "Hg9 mi
7:00 PM36 °FOvercast.6 mph60%29.86 "Hg9 mi
6:00 PM36 °FOvercast.10 mph60%29.85 "Hg9 mi
5:00 PM34 °FOvercast.9 mph65%29.83 "Hg9 mi
4:00 PM34 °FOvercast.8 mph65%29.82 "Hg9 mi
3:00 PM32 °FLow clouds.9 mph64%29.81 "Hg7 mi
2:00 PM32 °FLow clouds.10 mph64%29.80 "Hg7 mi
1:00 PM32 °FLow clouds.9 mph64%29.79 "Hg7 mi
12:00 PM30 °FLow clouds.10 mph69%29.78 "Hg6 mi
Weather by CustomWeather, © 2014

See weather overview